Ypsilanti, MI

2:38 AM EDT on March 25, 2017 (GMT -0400)
Willow Run

Weather History for KYIP - October, 2012

Change the Weather History Date:

Wednesday, October 3, 2012

  Actual Average Record
Temperature  
Mean Temperature 64 °F -  
Max Temperature 69 °F 68 °F 84 °F (1971)
Min Temperature 60 °F 47 °F 28 °F (1974)
Growing Degree Days 14 (Base 50)    
Moisture  
Dew Point 56 °F    
Average Humidity 76    
Maximum Humidity 90    
Minimum Humidity 60    
Precipitation  
Precipitation 0.01 in - - ()
Sea Level Pressure  
Sea Level Pressure 29.99 in    
Wind  
Wind Speed 5 mph (SSW)    
Max Wind Speed 13 mph    
Max Gust Speed 20 mph    
Visibility 7 miles    
Events Rain    
Averages and records for this station are not official NWS values.
T = Trace of Precipitation, MM = Missing Value Source: NWS Daily Summary

Daily Weather History Graph

Daily Weather History Graph

Search for Another Location

Airport or City:

Trip Planner

Search our weather history database for the weather conditions in past years. The results will help you decide how hot, cold, wet, or windy it might be!

Date:

Astronomy

Oct. 03, 2012 Rise Set
Actual Time 7:33 AM EDT 7:11 PM EDT
Civil Twilight 7:05 AM EDT 7:39 PM EDT
Nautical Twilight 6:33 AM EDT 8:11 PM EDT
Astronomical Twilight 6:00 AM EDT 8:44 PM EDT
Moon 8:58 PM EDT (10/3) 11:00 AM EDT (10/3)
Length of Visible Light 12h 33m
Length of Day
11h 37m
Waning Gibbous, 89% of the Moon is Illuminated
Oct 3
Waning Gibbous
Oct 8
Last Quarter
Oct 15
New
Oct 21
First Quarter
Oct 29
Full

Hourly Weather History & Observations

Time (EDT) Temp. Dew Point Humidity Pressure Visibility Wind Dir Wind Speed Gust Speed Precip Events Conditions
12:38 AM 60.8 °F 53.6 °F 77% 29.92 in 10.0 mi NNE 5.8 mph - N/A   Overcast
12:53 AM 61.0 °F 54.0 °F 78% 29.90 in 10.0 mi NNE 5.8 mph - N/A   Overcast
1:06 AM 60.8 °F 53.6 °F 77% 29.91 in 10.0 mi NE 4.6 mph - N/A   Overcast
1:53 AM 62.1 °F 55.0 °F 78% 29.89 in 10.0 mi NNE 4.6 mph - N/A   Overcast
2:19 AM 62.6 °F 53.6 °F 72% 29.91 in 10.0 mi NNE 4.6 mph - N/A   Overcast
2:53 AM 62.1 °F 55.0 °F 78% 29.91 in 10.0 mi Calm Calm - N/A   Overcast
3:53 AM 62.1 °F 55.9 °F 80% 29.91 in 10.0 mi Calm Calm - N/A   Overcast
4:53 AM 63.0 °F 55.9 °F 78% 29.93 in 10.0 mi Calm Calm - N/A   Overcast
5:53 AM 62.1 °F 55.9 °F 80% 29.94 in 9.0 mi Calm Calm - N/A   Overcast
6:16 AM 60.8 °F 57.2 °F 88% 29.96 in 2.5 mi Calm Calm - 0.00 in Rain Light Rain
6:31 AM 60.8 °F 57.2 °F 88% 29.96 in 3.0 mi Calm Calm - 0.01 in Rain Light Rain
6:51 AM 60.8 °F 57.2 °F 88% 29.97 in 1.8 mi Calm Calm - 0.01 in   Overcast
6:52 AM 61.0 °F 57.0 °F 87% 29.96 in 1.8 mi Calm Calm - 0.01 in   Overcast
7:02 AM 60.8 °F 57.2 °F 88% 29.97 in 1.2 mi WSW 3.5 mph - N/A   Overcast
7:53 AM 61.0 °F 57.9 °F 90% 29.98 in 2.5 mi Calm Calm - N/A   Overcast
8:08 AM 60.8 °F 57.2 °F 88% 29.99 in 1.2 mi Calm Calm - N/A   Overcast
8:53 AM 62.1 °F 57.9 °F 86% 29.99 in 1.8 mi Calm Calm - N/A   Overcast
9:04 AM 62.6 °F 57.2 °F 82% 30.00 in 2.0 mi Calm Calm - N/A   Haze
9:28 AM 62.6 °F 57.2 °F 82% 30.00 in 1.8 mi Calm Calm - N/A   Haze
9:43 AM 62.6 °F 59.0 °F 88% 30.01 in 2.0 mi Calm Calm - N/A   Overcast
9:53 AM 64.9 °F 59.0 °F 81% 30.00 in 3.0 mi SSW 5.8 mph - N/A   Haze
10:00 AM 64.4 °F 59.0 °F 83% 30.01 in 4.0 mi SSW 5.8 mph - N/A   Haze
10:34 AM 64.4 °F 57.2 °F 77% 30.02 in 5.0 mi SSW 8.1 mph - N/A   Haze
10:53 AM 64.9 °F 57.9 °F 78% 30.01 in 5.0 mi SW 5.8 mph - N/A   Haze
11:05 AM 64.4 °F 59.0 °F 83% 30.02 in 5.0 mi SW 9.2 mph - N/A   Haze
11:14 AM 66.2 °F 57.2 °F 73% 30.02 in 6.0 mi SW 10.4 mph - N/A   Haze
11:26 AM 66.2 °F 57.2 °F 73% 30.01 in 7.0 mi SSW 8.1 mph - N/A   Overcast
11:53 AM 66.9 °F 57.9 °F 73% 30.01 in 8.0 mi South 9.2 mph - N/A   Overcast
12:04 PM 69.8 °F 59.0 °F 68% 30.02 in 9.0 mi SSW 8.1 mph - N/A   Overcast
12:48 PM 69.8 °F 55.4 °F 60% 30.02 in 10.0 mi SW 10.4 mph - N/A   Overcast
12:53 PM 69.1 °F 55.9 °F 63% 30.01 in 10.0 mi SSW 10.4 mph - N/A   Overcast
1:53 PM 68.0 °F 55.0 °F 63% 30.01 in 10.0 mi SSW 11.5 mph 17.3 mph N/A   Overcast
2:53 PM 66.9 °F 54.0 °F 63% 30.00 in 10.0 mi South 11.5 mph - N/A   Overcast
3:53 PM 66.9 °F 54.0 °F 63% 30.01 in 10.0 mi South 12.7 mph - N/A   Overcast
4:23 PM 64.4 °F 53.6 °F 68% 30.03 in 10.0 mi SSW 11.5 mph 19.6 mph N/A   Overcast
4:33 PM 64.4 °F 53.6 °F 68% 30.03 in 10.0 mi SSW 11.5 mph - N/A   Overcast
4:53 PM 66.0 °F 54.0 °F 65% 30.02 in 10.0 mi South 5.8 mph - N/A   Overcast
6:50 PM 64.4 °F 53.6 °F 68% 30.06 in 10.0 mi South 9.2 mph - N/A   Overcast
6:53 PM 64.9 °F 54.0 °F 68% 30.05 in 10.0 mi South 8.1 mph - N/A   Overcast
7:32 PM 64.4 °F 53.6 °F 68% 30.06 in 10.0 mi South 6.9 mph - N/A   Overcast
7:53 PM 64.0 °F 54.0 °F 70% 30.05 in 10.0 mi South 4.6 mph - N/A   Overcast
8:53 PM 64.0 °F 54.0 °F 70% 30.06 in 10.0 mi South 6.9 mph - N/A   Overcast
9:53 PM 64.0 °F 54.0 °F 70% 30.07 in 10.0 mi South 6.9 mph - N/A   Overcast
10:53 PM 62.1 °F 54.0 °F 75% 30.08 in 10.0 mi South 3.5 mph - N/A   Overcast
11:53 PM 61.0 °F 54.0 °F 78% 30.07 in 10.0 mi South 8.1 mph - N/A   Scattered Clouds